Location: Newark
(25.0000°N, 73.5000°E)
Time: 05:32:44
(UTC+00:00)

Altair - Pass Details

Date: 09 March 2021
Orbit: 1501 x 1683 km, 47.2° (Epoch: 12 April)

Event Time Altitude Azimuth Distance (km) Brightness Sun altitude
Rises 14:32:15 0° 296° (WNW) 4,636 11.3 -19.0°
Reaches altitude 10° 14:36:43 10° 315° (NW) 3,669 10.2 -20.0°
Maximum altitude 14:42:32 18° 355° (N) 3,118 9.2 -21.3°
Drops below altitude 10° 14:48:28 10° 35° (NE) 3,737 9.2 -22.6°
Enters shadow 14:49:36 - 40° (NE) 3,960 9.3 -22.9°
Sets 14:53:05 0° 54° (NE) 4,757 - -23.7°
